Aberdeen, SD

12:03 AM CST on November 21, 2019 (GMT -0600)
Aberdeen Regional

Weather History for KABR - October, 2019

Change the Weather History Date:

Thursday, October 17, 2019

  Actual Average Record
Temperature  
Mean Temperature 46 °F 45 °F  
Max Temperature 64 °F 57 °F 92 °F (1910)
Min Temperature 28 °F 32 °F 15 °F (1976)
Degree Days  
Heating Degree Days 18    
Month to date heating degree days 366  
Since 1 July heating degree days 509  
Cooling Degree Days 0    
Month to date cooling degree days 0  
Year to date cooling degree days 601  
Moisture  
Dew Point 37 °F    
Average Humidity 71    
Maximum Humidity 92    
Minimum Humidity 48    
Precipitation  
Precipitation 0.00 in 0.07 in 1.17 in (1998)
Month to date precipitation 2.06 1.23  
Year to date precipitation 27.22 19.71  
Snow  
Snow 0.00 in 0.00 in 5.00 in (1905)
Month to date snowfall 5.0 0.1  
Since 1 July snowfall 5.0 0.1  
Snow Depth 0.00 in    
Sea Level Pressure  
Sea Level Pressure 29.79 in    
Wind  
Wind Speed 6 mph ()    
Max Wind Speed 22 mph    
Max Gust Speed 30 mph    
Visibility 10.0 miles    
Events      
T = Trace of Precipitation, MM = Missing Value Source: Averaged Metar Reports

Daily Weather History Graph

Daily Weather History Graph

Search for Another Location

Airport or City:

Astronomy

Oct. 17, 2019 Rise Set
Actual Time 7:52 AM CDT 6:45 PM CDT
Civil Twilight 7:22 AM CDT 7:14 PM CDT
Nautical Twilight 6:48 AM CDT 7:49 PM CDT
Astronomical Twilight 6:13 AM CDT 8:23 PM CDT
Moon 9:08 PM CDT (10/17) 11:34 AM CDT (10/17)
Length of Visible Light 11h 52m
Length of Day
10h 52m
Waning Gibbous, 86% of the Moon is Illuminated
Oct 17
Waning Gibbous
Oct 21
Last Quarter
Oct 27
New
Nov 4
First Quarter
Nov 12
Full

Hourly Weather History & Observations

Time (CDT) Temp. Windchill Dew Point Humidity Pressure Visibility Wind Dir Wind Speed Gust Speed Precip Events Conditions
12:53 AM 35.1 °F 30.1 °F 32.0 °F 89% 29.96 in 10.0 mi ESE 5.8 mph - N/A   Clear
1:53 AM 32.0 °F 27.5 °F 28.9 °F 88% 29.93 in 10.0 mi East 4.6 mph - N/A   Clear
2:53 AM 32.0 °F 28.7 °F 30.0 °F 92% 29.93 in 10.0 mi NNE 3.5 mph - N/A   Clear
3:53 AM 30.9 °F 27.5 °F 28.0 °F 89% 29.92 in 10.0 mi NE 3.5 mph - N/A   Clear
4:53 AM 30.0 °F 25.2 °F 27.0 °F 88% 29.91 in 10.0 mi ENE 4.6 mph - N/A   Clear
5:53 AM 30.0 °F 26.5 °F 27.0 °F 88% 29.90 in 10.0 mi NE 3.5 mph - N/A   Clear
6:53 AM 28.9 °F 25.2 °F 27.0 °F 92% 29.90 in 10.0 mi ENE 3.5 mph - N/A   Clear
7:53 AM 30.0 °F 24.1 °F 27.0 °F 88% 29.90 in 10.0 mi East 5.8 mph - N/A   Clear
8:53 AM 32.0 °F - 30.0 °F 92% 29.91 in 10.0 mi Calm Calm - N/A   Clear
9:53 AM 42.1 °F 37.1 °F 36.0 °F 79% 29.89 in 10.0 mi SSE 8.1 mph - N/A   Clear
10:53 AM 48.9 °F - 39.0 °F 69% 29.87 in 10.0 mi SE 6.9 mph - N/A   Clear
11:53 AM 51.1 °F - 39.9 °F 66% 29.85 in 10.0 mi SE 6.9 mph - N/A   Clear
12:53 PM 57.0 °F - 39.9 °F 53% 29.81 in 10.0 mi SSE 11.5 mph - N/A   Clear
1:53 PM 59.0 °F - 41.0 °F 51% 29.77 in 10.0 mi SE 10.4 mph - N/A   Clear
2:53 PM 62.1 °F - 44.1 °F 52% 29.74 in 10.0 mi SE 9.2 mph - N/A   Clear
3:53 PM 64.0 °F - 44.1 °F 48% 29.71 in 10.0 mi SE 13.8 mph - N/A   Clear
4:53 PM 62.1 °F - 44.1 °F 52% 29.69 in 10.0 mi SE 11.5 mph - N/A   Clear
5:53 PM 57.9 °F - 45.0 °F 62% 29.67 in 10.0 mi ESE 6.9 mph - N/A   Clear
6:53 PM 55.9 °F - 43.0 °F 62% 29.65 in 10.0 mi ESE 10.4 mph - N/A   Clear
7:53 PM 53.1 °F - 43.0 °F 69% 29.65 in 10.0 mi ESE 8.1 mph - N/A   Clear
8:53 PM 55.0 °F - 42.1 °F 62% 29.63 in 10.0 mi SE 11.5 mph - N/A   Clear
9:53 PM 55.9 °F - 42.1 °F 60% 29.60 in 10.0 mi SE 13.8 mph - N/A   Clear
10:53 PM 55.0 °F - 42.1 °F 62% 29.58 in 10.0 mi SSE 17.3 mph 27.6 mph N/A   Clear
11:53 PM 55.0 °F - 42.1 °F 62% 29.55 in 10.0 mi SSE 20.7 mph 29.9 mph N/A   Clear